Location: Unspecified
(0.0000°N, 0.0000°E)
Time: 16:29:02
(UTC+00:00)

Hubble Space Telescope - Pass Details

Date: 21 September 2020
Orbit: 536 x 540 km, 28.5° (Epoch: 18 September)

Event Time Altitude Azimuth Distance (km) Brightness Sun altitude
Exits shadow 03:43:46 12° 42° (NE) 1,654 3.7 -32.3°
Drops below altitude 10° 03:44:05 10° 44° (NE) 1,772 3.9 -32.2°
Sets 03:46:24 0° 50° (NE) 2,660 5.0 -31.7°
